User: anonymous   Login
Location: ????
(30.2663°N, 31.2484°E)
Time: 02:33:33
(UTC+00:00)
Language:

Cosmos 1461 - Orbit

View from above orbital plane
View from above orbital plane
View from above satellite
View from above satellite

Ground track
Ground track

The orbit data is extracted from the following two-line orbital elements,

1 14064U 83044A   24106.41498163  .00012308  00000-0  79599-3 0  9999
2 14064  64.9966  95.6271 0067043 143.9256 216.6419 15.06634407 96478
Epoch (UTC): 15 April 2024 09:57:34
Eccentricity: 0.0067043
inclination: 64.9966°
perigee height: 500 km
apogee height: 593 km
right ascension of ascending node: 95.6271°
argument of perigee: 143.9256°
revolutions per day: 15.06634407
mean anomaly at epoch: 216.6419°
orbit number at epoch: 9647

The dashed part of the orbit path shows where the satellite is in the earth's shadow,  

DLR